Вернуться в каталог

STARLINK-33708

АктивенСвязьVLEO
NORAD 63405·PAYLOAD·🇺🇸 United States

Запущен Mar 31, 2025 с Cape Canaveral Space Force Station

Loading…

Ближайшие Пролёты (ближайшие 24 часа)

TLE

СвежийSource: CelesTrak SupGP

Эпоха: Sep 15, 2026, 03:31 UTC

1 63405C 25065G   26258.14701389  .00041885  00000+0  15169-2 0  2589
2 63405  43.0020 117.0304 0001484 278.9068 169.2821 15.27560647    15

Отслеживайте STARLINK-33708 в реальном времени с AllMySat

Download on the App Store